Home > Weather > Grand Prairie > Past weeks

Flag for USA Past Weather in Grand Prairie, Texas, USA — Yesterday and Last 2 Weeks

Now
82 °F

Passing clouds.


Feels Like: 87 °F
Forecast: 73 / 83 °F
Wind: 9 mph from Southeast

Location: Grand Prairie Municipal Airport

Current Time: May 25, 2016 at 10:04:30 PM

Latest Report: May 25, 2016 at 9:35 PM


Visibility: 7 mi

Pressure: 29.95 "Hg

Humidity: 75%

Dew Point: 73 °F

Location of Grand PrairieLocation

Past Weather in Grand Prairie — Graph

°F

Grand Prairie Temperature Yesterday

Maximum temperature yesterday: 86 °F (at 5:50 PM)
Minimum temperature yesterday: 73 °F (at 5:15 AM)
Average temperature yesterday: 78 °F

High & Low Weather Summary for the Past Weeks

 TemperatureHumidityPressure
High86 °F (May 11, 3:50 PM)100% (May 12, 12:55 AM)30.24 "Hg (May 12, 12:55 AM)
Low57 °F (May 18, 6:50 AM)17% (May 13, 4:50 PM)29.82 "Hg (May 23, 6:50 PM)
Average71 °F73%30.02 "Hg
* Reported May 10 8:15 PM — May 25 8:55 PM, Grand Prairie, Weather by CustomWeather, © 2016

Note: Actual official high and low records may vary slightly from our data, if they occured in-between our weather recording intervals... More about our weather records

Advertising

Grand Prairie Weather History for the Previous 24 Hours

Scroll right to see more
 ConditionsComfort  
Time TempWeatherWind HumidityBarometerVisibility
8:55 PM
Wed, May 25
82 °FScattered clouds.7 mph74%29.94 "Hg10 mi
8:35 PM82 °FSunny.10 mph73%29.93 "Hg7 mi
8:15 PM83 °FScattered clouds.8 mph73%29.93 "Hg7 mi
7:50 PM82 °FPartly sunny.7 mph74%29.93 "Hg7 mi
6:50 PM82 °FBroken clouds.9 mph74%29.92 "Hg7 mi
5:50 PM84 °FBroken clouds.8 mph70%29.93 "Hg10 mi
4:50 PM82 °FPartly sunny.9 mph70%29.94 "Hg10 mi
3:50 PM84 °FMostly cloudy.8 mph66%29.95 "Hg10 mi
2:50 PM84 °FPartly sunny.15 mph66%29.98 "Hg10 mi
1:50 PM84 °FBroken clouds.12 mph66%29.98 "Hg10 mi
12:50 PM82 °FPartly sunny.9 mph70%30.00 "Hg10 mi
11:50 AM82 °FPartly sunny.14 mph66%29.98 "Hg10 mi
10:50 AM82 °FPartly sunny.14 mph70%29.98 "Hg10 mi
9:50 AM79 °FBroken clouds.14 mph79%29.99 "Hg10 mi
8:50 AM79 °FScattered clouds.12 mph79%29.99 "Hg10 mi
7:50 AM77 °FPartly sunny.12 mph83%29.98 "Hg10 mi
6:50 AM77 °FClear.9 mph79%29.96 "Hg10 mi
6:15 AM76 °FPassing clouds.10 mph80%29.97 "Hg10 mi
5:55 AM77 °FPassing clouds.12 mph80%29.97 "Hg10 mi
5:35 AM77 °FPassing clouds.8 mph80%29.96 "Hg10 mi
5:15 AM77 °FPartly cloudy.10 mph80%29.96 "Hg10 mi
4:55 AM77 °FPassing clouds.12 mph77%29.95 "Hg10 mi
4:35 AM77 °FPassing clouds.8 mph77%29.95 "Hg10 mi
4:15 AM77 °FPassing clouds.8 mph77%29.94 "Hg10 mi
3:55 AM77 °FPartly cloudy.12 mph79%29.94 "Hg10 mi
3:35 AM77 °FPartly cloudy.12 mph79%29.94 "Hg10 mi
3:15 AM77 °FPassing clouds.12 mph78%29.94 "Hg10 mi
2:55 AM78 °FPartly cloudy.12 mph76%29.93 "Hg10 mi
2:35 AM78 °FPartly cloudy.14 mph76%29.94 "Hg10 mi
2:15 AM79 °FPartly cloudy.15 mph76%29.93 "Hg10 mi
1:55 AM79 °FPassing clouds.14 mph76%29.94 "Hg10 mi
1:35 AM79 °FPassing clouds.13 mph76%29.94 "Hg10 mi
1:15 AM80 °FPartly cloudy.14 mph75%29.94 "Hg10 mi
12:55 AM80 °FPartly cloudy.8 mph76%29.95 "Hg10 mi
12:35 AM80 °FPartly cloudy.12 mph76%29.94 "Hg10 mi
12:15 AM80 °FPassing clouds.13 mph75%29.94 "Hg10 mi
11:55 PM
Tue, May 24
81 °FPartly cloudy.13 mph74%29.95 "Hg10 mi
11:35 PM81 °FPartly cloudy.9 mph74%29.94 "Hg10 mi
11:15 PM81 °FPassing clouds.8 mph74%29.94 "Hg10 mi
10:55 PM82 °FPartly cloudy.10 mph72%29.94 "Hg10 mi
10:35 PM82 °FPassing clouds.9 mph72%29.93 "Hg10 mi
10:15 PM82 °FPassing clouds.8 mph72%29.93 "Hg10 mi
Weather by CustomWeather, © 2016

See weather overviewHow to use our weather pages